Voltar ao catálogo

METEOR 2-17 DEB

AtivoPO
NORAD 31397·DEBRIS·🇷🇺 Russia

Lançado Jan 30, 1988 de Plesetsk Cosmodrome

Loading…

Próximas Passagens (próximas 24 horas)

TLE

AtualizadoSource: Space-Track

Época: Sep 11, 2026, 19:34 UTC

1 31397U 88005S   26254.81539720  .00001564  00000-0  96226-3 0  9992
2 31397  82.5376 195.6524 0006621 343.9975  45.4782 14.05032270  1648

Acompanhe METEOR 2-17 DEB em tempo real com AllMySat

Download on the App Store